Date String (YYYY-MM-DD hh:mm:ss) UTC,Instrument flags,absolute air pressure of the measurement (hPa),sample flow rate (lpm),inlet stack bypass flow (lpm),air temperature of the measurement (°C),ambient temperature measured by the external sensor (°C),aerosol sample conditioner tube jacket temperature (°C),OPC LED temperature (°C),internal box temperature (°C),relative humidity of the measurement (%),span deviation,mass concentration of particles derived from Lorenz-Mie calculation of OPC scattering (μg/m³),mass concentration of particles derived from Lorenz-Mie calculation of OPC scattering (μg/m³),mass concentration of particles derived from Lorenz-Mie calculation of OPC scattering (μg/m³)
DateTimeUTC,F1_M11,P_M11,Q1_M11,Q2_M11,T1_M11,T2_M11,T3_M11,T4_M11,T5_M11,U1_M11,ZSPAN_M11,X0_M11,X2_M11,X1_M11
2024-01-25 16:00:00,SystemResetWarning,0826.9,5.00,000.00,020.5,019.8,000.0,028.7,021.9,17.6,0000.0,0004.47,0002.74,0002.30
2024-01-25 16:01:00,SystemResetWarning,0826.9,5.00,000.00,020.5,019.8,000.0,028.7,022.0,17.5,0000.0,0005.91,0002.75,0002.28
2024-01-25 16:02:00,SystemResetWarning,0826.9,5.01,000.00,020.5,019.8,000.0,028.7,022.0,17.5,0000.0,0006.97,0002.78,0002.32
2024-01-25 16:03:00,SystemResetWarning,0826.9,5.00,000.00,020.5,019.8,000.0,028.7,022.0,17.6,0000.0,0006.87,0002.78,0002.33
2024-01-25 16:04:00,SystemResetWarning,0826.9,5.00,000.00,020.5,019.8,000.0,028.8,022.0,17.8,0000.0,0006.74,0002.75,0002.30
2024-01-25 16:05:00,SystemResetWarning,0826.9,5.00,000.00,020.5,019.8,000.0,028.8,022.0,17.6,0000.0,0007.03,0002.73,0002.30
2024-01-25 16:06:00,SystemResetWarning,0826.9,5.00,000.00,020.6,019.9,000.0,028.8,022.0,17.5,0000.0,0007.09,0002.75,0002.34
2024-01-25 16:07:00,SystemResetWarning,0826.9,5.00,000.00,020.6,019.9,000.0,028.8,022.0,17.5,0000.0,0007.16,0002.80,0002.40
2024-01-25 16:08:00,SystemResetWarning,0826.9,5.00,000.00,020.6,019.9,000.0,028.8,022.1,17.7,0000.0,0007.01,0002.88,0002.46
2024-01-25 16:09:00,SystemResetWarning,0826.9,4.99,000.00,020.6,019.9,000.0,028.8,022.1,17.6,0000.0,0006.90,0002.96,0002.53
2024-01-25 16:10:00,SystemResetWarning,0826.9,5.00,000.00,020.6,019.9,000.0,028.8,022.1,17.4,0000.0,0006.99,0003.03,0002.61
2024-01-25 16:11:00,SystemResetWarning,0827.0,5.00,000.00,020.6,019.9,000.0,028.8,022.1,17.8,0000.0,0007.18,0003.09,0002.69
2024-01-25 16:12:00,SystemResetWarning,0827.0,5.01,000.00,020.6,019.9,000.0,028.9,022.1,17.5,0000.0,0006.33,0003.13,0002.76
2024-01-25 16:13:00,SystemResetWarning,0827.0,5.01,000.00,020.6,019.9,000.0,028.9,022.1,17.6,0000.0,0004.85,0003.12,0002.80
2024-01-25 16:14:00,SystemResetWarning,0827.0,5.01,000.00,020.6,019.9,000.0,028.9,022.1,17.6,0000.0,0004.75,0003.14,0002.84
2024-01-25 16:15:00,SystemResetWarning,0826.9,5.00,000.00,020.7,020.0,000.0,028.9,022.1,17.5,0000.0,0004.82,0003.19,0002.95
2024-01-25 16:16:00,SystemResetWarning,0826.9,5.00,000.00,020.7,020.0,000.0,028.9,022.1,17.5,0000.0,0005.39,0003.24,0003.08
2024-01-25 16:17:00,SystemResetWarning,0826.9,4.99,000.00,020.7,020.0,000.0,028.9,022.2,17.8,0000.0,0006.74,0003.29,0003.13
2024-01-25 16:18:00,SystemResetWarning,0826.9,4.99,000.00,020.7,020.0,000.0,028.9,022.2,17.8,0000.0,0007.80,0003.32,0003.16
2024-01-25 16:19:00,SystemResetWarning,0827.0,4.99,000.00,020.7,020.0,000.0,028.9,022.2,17.7,0000.0,0007.71,0003.33,0003.18
2024-01-25 16:20:00,SystemResetWarning,0827.0,5.00,000.00,020.7,020.0,000.0,028.9,022.2,17.6,0000.0,0007.63,0003.35,0003.20
2024-01-25 16:21:00,SystemResetWarning,0827.0,5.00,000.00,020.7,020.0,000.0,028.9,022.2,18.0,0000.0,0007.64,0003.37,0003.22
2024-01-25 16:22:00,SystemResetWarning,0826.9,5.00,000.00,020.7,020.0,000.0,028.9,022.2,18.1,0000.0,0007.57,0003.37,0003.23
2024-01-25 16:23:00,SystemResetWarning,0826.9,5.00,000.00,020.8,020.0,000.0,029.0,022.2,17.7,0000.0,0007.59,0003.40,0003.24
2024-01-25 16:24:00,SystemResetWarning,0826.9,5.00,000.00,020.8,020.1,000.0,029.0,022.2,18.0,0000.0,0007.63,0003.41,0003.25
2024-01-25 16:25:00,SystemResetWarning,0826.9,5.00,000.00,020.8,020.1,000.0,029.0,022.2,18.3,0000.0,0007.70,0003.43,0003.26
2024-01-25 16:26:00,SystemResetWarning,0826.9,5.00,000.00,020.8,020.1,000.0,029.0,022.3,18.1,0000.0,0007.87,0003.44,0003.27
2024-01-25 16:27:00,SystemResetWarning,0826.9,5.00,000.00,020.8,020.1,000.0,029.0,022.3,17.5,0000.0,0007.87,0003.45,0003.26
2024-01-25 16:28:00,SystemResetWarning,0826.9,5.00,000.00,020.8,020.1,000.0,029.0,022.3,17.2,0000.0,0006.81,0003.44,0003.26
2024-01-25 16:29:00,SystemResetWarning,0826.9,5.00,000.00,020.8,020.1,000.0,029.0,022.3,16.8,0000.0,0005.18,0003.43,0003.27
2024-01-25 16:30:00,SystemResetWarning,0826.9,5.00,000.00,020.8,020.1,000.0,029.0,022.3,16.9,0000.0,0005.17,0003.44,0003.27
2024-01-25 16:31:00,SystemResetWarning,0826.9,5.00,000.00,020.8,020.1,000.0,029.1,022.3,17.2,0000.0,0005.21,0003.45,0003.28
2024-01-25 16:32:00,SystemResetWarning,0826.9,5.00,000.00,020.9,020.1,000.0,029.1,022.3,17.2,0000.0,0005.12,0003.45,0003.29
2024-01-25 16:33:00,SystemResetWarning,0826.9,5.00,000.00,020.9,020.2,000.0,029.1,022.4,17.3,0000.0,0005.18,0003.46,0003.30
2024-01-25 16:34:00,SystemResetWarning,0826.9,5.00,000.00,020.9,020.2,000.0,029.1,022.4,17.1,0000.0,0005.17,0003.45,0003.30
2024-01-25 16:35:00,SystemResetWarning,0826.9,5.00,000.00,020.9,020.2,000.0,029.1,022.4,16.8,0000.0,0005.81,0003.45,0003.29
2024-01-25 16:36:00,SystemResetWarning,0827.0,4.99,000.00,020.9,020.2,000.0,029.1,022.4,16.8,0000.0,0006.20,0003.47,0003.31
2024-01-25 16:37:00,SystemResetWarning,0827.0,4.99,000.00,020.9,020.2,000.0,029.1,022.4,17.0,0000.0,0006.25,0003.48,0003.31
2024-01-25 16:38:00,SystemResetWarning,0826.9,5.00,000.00,020.9,020.2,000.0,029.1,022.5,16.8,0000.0,0005.63,0003.48,0003.31
2024-01-25 16:39:00,SystemResetWarning,0826.9,5.00,000.00,020.9,020.3,000.0,029.2,022.5,16.5,0000.0,0007.24,0003.50,0003.32
2024-01-25 16:40:00,SystemResetWarning,0827.0,5.01,000.00,021.0,020.3,000.0,029.2,022.5,16.6,0000.0,0007.42,0003.53,0003.33
2024-01-25 16:41:00,SystemResetWarning,0826.9,5.00,000.00,021.0,020.3,000.0,029.2,022.5,16.6,0000.0,0007.56,0003.56,0003.32
2024-01-25 16:42:00,SystemResetWarning,0827.0,5.00,000.00,021.0,020.3,000.0,029.2,022.5,16.6,0000.0,0007.57,0003.56,0003.31
2024-01-25 16:43:00,SystemResetWarning,0827.0,5.00,000.00,021.0,020.3,000.0,029.2,022.5,16.8,0000.0,0008.33,0003.54,0003.30
2024-01-25 16:44:00,SystemResetWarning,0827.0,5.00,000.00,021.0,020.4,000.0,029.2,022.6,17.0,0000.0,0008.36,0003.54,0003.30
2024-01-25 16:45:00,SystemResetWarning,0827.0,5.00,000.00,021.1,020.4,000.0,029.2,022.6,16.9,0000.0,0008.37,0003.54,0003.30
2024-01-25 16:46:00,SystemResetWarning,0827.0,5.00,000.00,021.1,020.4,000.0,029.2,022.6,16.9,0000.0,0008.03,0003.54,0003.30
2024-01-25 16:47:00,SystemResetWarning,0827.0,5.00,000.00,021.1,020.4,000.0,029.3,022.6,16.6,0000.0,0007.84,0003.53,0003.30
2024-01-25 16:48:00,SystemResetWarning,0827.1,5.00,000.00,021.1,020.5,000.0,029.3,022.6,16.7,0000.0,0008.03,0003.53,0003.30
2024-01-25 16:49:00,SystemResetWarning,0827.0,5.00,000.00,021.1,020.5,000.0,029.3,022.7,16.8,0000.0,0008.04,0003.55,0003.32
2024-01-25 16:50:00,SystemResetWarning,0827.1,5.00,000.00,021.1,020.5,000.0,029.3,022.7,16.6,0000.0,0007.27,0003.56,0003.33
2024-01-25 16:51:00,SystemResetWarning,0827.1,5.00,000.00,021.2,020.5,000.0,029.3,022.7,16.4,0000.0,0007.02,0003.55,0003.33
2024-01-25 16:52:00,SystemResetWarning,0827.1,4.99,000.00,021.2,020.5,000.0,029.3,022.7,16.2,0000.0,0006.96,0003.57,0003.36
2024-01-25 16:53:00,SystemResetWarning,0827.1,5.00,000.00,021.2,020.6,000.0,029.4,022.7,16.1,0000.0,0007.17,0003.63,0003.41
2024-01-25 16:54:00,SystemResetWarning,0827.0,5.00,000.00,021.2,020.6,000.0,029.4,022.8,16.3,0000.0,0005.96,0003.67,0003.45
2024-01-25 16:55:00,SystemResetWarning,0827.0,5.00,000.00,021.2,020.6,000.0,029.4,022.8,16.4,0000.0,0006.15,0003.70,0003.47
2024-01-25 16:56:00,SystemResetWarning,0827.1,5.01,000.00,021.3,020.6,000.0,029.4,022.8,16.3,0000.0,0006.49,0003.72,0003.50
2024-01-25 16:57:00,SystemResetWarning,0827.0,5.00,000.00,021.3,020.7,000.0,029.4,022.8,16.2,0000.0,0006.55,0003.78,0003.56
2024-01-25 16:58:00,SystemResetWarning,0827.1,5.00,000.00,021.3,020.7,000.0,029.4,022.8,16.3,0000.0,0006.62,0003.87,0003.64
2024-01-25 16:59:00,SystemResetWarning,0827.1,5.01,000.00,021.3,020.7,000.0,029.5,022.9,16.0,0000.0,0006.21,0003.94,0003.74
